Private Wetterstation Wechselburg
Wetterdaten: Montag, 10.06.2013
Datum Zeit Temp. +2m Bodentemp. Temp.+5cm Temp. Wind Windchill X Diff Temp. Feuchte +2m Feuchte +5cm Sonnenschein Luftdruck Regen Wind Richtung Richtung Sonnenschein UV Taupunkt Windchill Windben
10.06.2013 00:00 12,3 C 22,7 C 13,5 C 12,6 C 12,6 C 0,3 C 90 % 89 % 0 % 1005,6 hPa 0,0 l/m 0,0 km/h (0 Bft) NW 315 0 min 0,0 UV-I 10,7 C 12,6 C 0,0 km/h (0 Bft)
10.06.2013 00:05 12,3 C 22,7 C 13,5 C 12,6 C 12,6 C 0,3 C 90 % 89 % 0 % 1005,6 hPa 0,0 l/m 0,0 km/h (0 Bft) NW 315 0 min 0,0 UV-I 10,7 C 12,6 C 0,0 km/h (0 Bft)
10.06.2013 00:10 12,3 C 22,7 C 13,5 C 12,8 C 12,8 C 0,5 C 90 % 89 % 0 % 1005,6 hPa 0,0 l/m 0,0 km/h (0 Bft) W-SW 247 0 min 0,0 UV-I 10,7 C 12,8 C 0,0 km/h (0 Bft)
10.06.2013 00:15 12,3 C 22,7 C 13,4 C 12,8 C 12,8 C 0,5 C 90 % 89 % 0 % 1005,5 hPa 0,0 l/m 0,0 km/h (0 Bft) W 270 0 min 0,0 UV-I 10,7 C 12,8 C 0,0 km/h (0 Bft)
10.06.2013 00:20 12,2 C 22,7 C 13,5 C 12,8 C 12,8 C 0,6 C 90 % 89 % 0 % 1005,5 hPa 0,0 l/m 0,0 km/h (0 Bft) S 180 0 min 0,0 UV-I 10,6 C 12,8 C 0,0 km/h (0 Bft)
10.06.2013 00:25 12,2 C 22,7 C 13,5 C 12,8 C 12,8 C 0,6 C 91 % 89 % 0 % 1005,5 hPa 0,0 l/m 0,0 km/h (0 Bft) W-SW 247 0 min 0,0 UV-I 10,8 C 12,8 C 0,0 km/h (0 Bft)
10.06.2013 00:30 12,2 C 22,7 C 13,5 C 12,8 C 12,8 C 0,6 C 91 % 89 % 0 % 1005,5 hPa 0,0 l/m 0,0 km/h (0 Bft) SW 225 0 min 0,0 UV-I 10,8 C 12,8 C 0,0 km/h (0 Bft)
10.06.2013 00:35 12,2 C 22,7 C 13,5 C 12,8 C 12,8 C 0,6 C 91 % 89 % 0 % 1005,6 hPa 0,0 l/m 0,0 km/h (0 Bft) SW 225 0 min 0,0 UV-I 10,8 C 12,8 C 1,9 km/h (1 Bft)
10.06.2013 00:46 12,1 C 22,7 C 13,5 C 12,8 C 12,8 C 0,7 C 91 % 89 % 0 % 1005,6 hPa 0,0 l/m 0,2 km/h (0 Bft) N 0 0 min 0,0 UV-I 10,7 C 12,8 C 0,0 km/h (0 Bft)
10.06.2013 01:00 12,2 C 22,6 C 13,3 C 12,9 C 12,9 C 0,7 C 91 % 89 % 0 % 1005,6 hPa 0,0 l/m 0,2 km/h (0 Bft) N-NO 22 0 min 0,0 UV-I 10,8 C 12,9 C 0,0 km/h (0 Bft)
10.06.2013 01:05 12,3 C 22,6 C 13,3 C 12,9 C 12,9 C 0,6 C 91 % 89 % 0 % 1005,6 hPa 0,0 l/m 0,3 km/h (0 Bft) O-NO 67 0 min 0,0 UV-I 10,9 C 12,9 C 2,7 km/h (1 Bft)
10.06.2013 01:10 12,3 C 22,6 C 13,3 C 13,0 C 13,0 C 0,7 C 91 % 89 % 0 % 1005,6 hPa 0,0 l/m 0,6 km/h (0 Bft) O-NO 67 0 min 0,0 UV-I 10,9 C 13,0 C 0,0 km/h (0 Bft)
10.06.2013 01:15 12,2 C 22,6 C 13,4 C 13,1 C 13,1 C 0,9 C 91 % 89 % 0 % 1005,8 hPa 0,0 l/m 0,6 km/h (0 Bft) NO 45 0 min 0,0 UV-I 10,8 C 13,1 C 0,0 km/h (0 Bft)
10.06.2013 01:20 12,3 C 22,6 C 13,4 C 13,1 C 13,1 C 0,8 C 91 % 89 % 0 % 1005,8 hPa 0,0 l/m 0,0 km/h (0 Bft) S-SW 202 0 min 0,0 UV-I 10,9 C 13,1 C 0,0 km/h (0 Bft)
10.06.2013 01:25 12,4 C 22,6 C 13,6 C 13,2 C 13,2 C 0,8 C 91 % 89 % 0 % 1005,8 hPa 0,0 l/m 0,2 km/h (0 Bft) S 180 0 min 0,0 UV-I 11,0 C 13,2 C 1,6 km/h (1 Bft)
10.06.2013 01:30 12,5 C 22,6 C 13,6 C 13,3 C 13,3 C 0,8 C 92 % 89 % 0 % 1005,8 hPa 0,0 l/m 0,2 km/h (0 Bft) W 270 0 min 0,0 UV-I 11,2 C 13,3 C 0,0 km/h (0 Bft)
10.06.2013 01:35 12,5 C 22,6 C 13,6 C 13,4 C 13,4 C 0,9 C 92 % 89 % 0 % 1005,8 hPa 0,0 l/m 0,2 km/h (0 Bft) W-SW 247 0 min 0,0 UV-I 11,2 C 13,4 C 0,0 km/h (0 Bft)
10.06.2013 01:40 12,5 C 22,6 C 13,7 C 13,4 C 13,4 C 0,9 C 92 % 89 % 0 % 1005,8 hPa 0,0 l/m 0,0 km/h (0 Bft) S-SW 202 0 min 0,0 UV-I 11,2 C 13,4 C 0,0 km/h (0 Bft)
10.06.2013 01:45 12,4 C 22,6 C 13,6 C 13,4 C 13,4 C 1,0 C 92 % 89 % 0 % 1005,8 hPa 0,0 l/m 0,0 km/h (0 Bft) SW 225 0 min 0,0 UV-I 11,1 C 13,4 C 0,0 km/h (0 Bft)
10.06.2013 01:50 12,4 C 22,6 C 13,6 C 13,4 C 13,4 C 1,0 C 92 % 89 % 0 % 1005,8 hPa 0,0 l/m 0,0 km/h (0 Bft) W-SW 247 0 min 0,0 UV-I 11,1 C 13,4 C 0,0 km/h (0 Bft)
10.06.2013 01:55 12,4 C 22,6 C 13,7 C 13,4 C 13,4 C 1,0 C 92 % 89 % 0 % 1005,6 hPa 0,0 l/m 0,0 km/h (0 Bft) S-SW 202 0 min 0,0 UV-I 11,1 C 13,4 C 0,0 km/h (0 Bft)
10.06.2013 02:00 12,5 C 22,6 C 13,7 C 13,3 C 13,3 C 0,8 C 92 % 89 % 0 % 1005,6 hPa 0,0 l/m 0,2 km/h (0 Bft) S 180 0 min 0,0 UV-I 11,2 C 13,3 C 0,0 km/h (0 Bft)
10.06.2013 02:05 12,4 C 22,5 C 13,7 C 13,3 C 13,3 C 0,9 C 92 % 89 % 0 % 1005,6 hPa 0,0 l/m 0,2 km/h (0 Bft) O-SO 112 0 min 0,0 UV-I 11,1 C 13,3 C 0,0 km/h (0 Bft)
10.06.2013 02:10 12,5 C 22,5 C 13,7 C 13,3 C 13,3 C 0,8 C 92 % 89 % 0 % 1005,6 hPa 0,0 l/m 0,0 km/h (0 Bft) O-SO 112 0 min 0,0 UV-I 11,2 C 13,3 C 0,0 km/h (0 Bft)
10.06.2013 02:15 12,5 C 22,5 C 13,7 C 13,4 C 13,4 C 0,9 C 92 % 89 % 0 % 1005,6 hPa 0,0 l/m 0,0 km/h (0 Bft) O-SO 112 0 min 0,0 UV-I 11,2 C 13,4 C 0,0 km/h (0 Bft)
10.06.2013 02:20 12,6 C 22,5 C 13,6 C 13,4 C 13,4 C 0,8 C 92 % 89 % 0 % 1005,6 hPa 0,0 l/m 0,0 km/h (0 Bft) SO 135 0 min 0,0 UV-I 11,3 C 13,4 C 0,0 km/h (0 Bft)
10.06.2013 02:25 12,7 C 22,5 C 13,7 C 13,5 C 13,5 C 0,8 C 92 % 89 % 0 % 1005,6 hPa 0,0 l/m 0,0 km/h (0 Bft) W 270 0 min 0,0 UV-I 11,4 C 13,5 C 0,0 km/h (0 Bft)
10.06.2013 02:30 12,6 C 22,5 C 13,7 C 13,6 C 13,6 C 1,0 C 92 % 89 % 0 % 1005,6 hPa 0,0 l/m 0,0 km/h (0 Bft) W 270 0 min 0,0 UV-I 11,3 C 13,6 C 0,0 km/h (0 Bft)
10.06.2013 02:35 12,7 C 22,5 C 13,9 C 13,6 C 13,6 C 0,9 C 92 % 90 % 0 % 1006,2 hPa 0,0 l/m 0,0 km/h (0 Bft) O-NO 67 0 min 0,0 UV-I 11,4 C 13,6 C 0,0 km/h (0 Bft)
10.06.2013 02:40 12,8 C 22,5 C 13,9 C 13,7 C 13,7 C 0,9 C 92 % 89 % 0 % 1006,2 hPa 0,0 l/m 0,0 km/h (0 Bft) W-SW 247 0 min 0,0 UV-I 11,5 C 13,7 C 0,0 km/h (0 Bft)
10.06.2013 02:45 12,9 C 22,5 C 13,8 C 13,7 C 13,7 C 0,8 C 92 % 90 % 0 % 1006,2 hPa 0,0 l/m 0,0 km/h (0 Bft) W-SW 247 0 min 0,0 UV-I 11,6 C 13,7 C 0,0 km/h (0 Bft)
10.06.2013 02:50 12,8 C 22,5 C 13,9 C 13,8 C 13,8 C 1,0 C 92 % 90 % 0 % 1006,2 hPa 0,0 l/m 0,0 km/h (0 Bft) W-SW 247 0 min 0,0 UV-I 11,5 C 13,8 C 0,0 km/h (0 Bft)
10.06.2013 02:55 12,8 C 22,5 C 13,9 C 13,8 C 13,8 C 1,0 C 92 % 89 % 0 % 1005,6 hPa 0,0 l/m 0,0 km/h (0 Bft) W-SW 247 0 min 0,0 UV-I 11,5 C 13,8 C 0,0 km/h (0 Bft)
10.06.2013 03:00 12,9 C 22,5 C 14,0 C 13,8 C 13,8 C 0,9 C 92 % 90 % 0 % 1005,6 hPa 0,0 l/m 0,0 km/h (0 Bft) W-SW 247 0 min 0,0 UV-I 11,6 C 13,8 C 0,0 km/h (0 Bft)
10.06.2013 03:05 12,9 C 22,5 C 14,0 C 13,8 C 13,8 C 0,9 C 92 % 90 % 0 % 1005,6 hPa 0,0 l/m 0,0 km/h (0 Bft) O-SO 112 0 min 0,0 UV-I 11,6 C 13,8 C 0,0 km/h (0 Bft)
10.06.2013 03:10 12,9 C 22,5 C 14,0 C 13,8 C 13,8 C 0,9 C 92 % 89 % 0 % 1005,6 hPa 0,0 l/m 0,0 km/h (0 Bft) N-NO 22 0 min 0,0 UV-I 11,6 C 13,8 C 0,0 km/h (0 Bft)
10.06.2013 03:15 13,1 C 22,5 C 14,0 C 13,9 C 13,9 C 0,8 C 92 % 90 % 0 % 1005,5 hPa 0,0 l/m 0,0 km/h (0 Bft) W 270 0 min 0,0 UV-I 11,8 C 13,9 C 0,0 km/h (0 Bft)
10.06.2013 03:20 13,0 C 22,5 C 14,0 C 13,9 C 13,9 C 0,9 C 92 % 90 % 0 % 1005,5 hPa 0,0 l/m 0,0 km/h (0 Bft) W 270 0 min 0,0 UV-I 11,7 C 13,9 C 1,6 km/h (1 Bft)
10.06.2013 03:25 13,1 C 22,5 C 14,0 C 13,9 C 13,9 C 0,8 C 92 % 90 % 0 % 1005,5 hPa 0,0 l/m 0,0 km/h (0 Bft) W 270 0 min 0,0 UV-I 11,8 C 13,9 C 0,0 km/h (0 Bft)
10.06.2013 03:30 13,1 C 22,5 C 14,0 C 13,8 C 13,8 C 0,7 C 92 % 89 % 0 % 1005,5 hPa 0,0 l/m 0,0 km/h (0 Bft) SW 225 0 min 0,0 UV-I 11,8 C 13,8 C 0,0 km/h (0 Bft)
10.06.2013 03:35 13,1 C 22,5 C 14,0 C 13,8 C 13,8 C 0,7 C 92 % 90 % 0 % 1005,2 hPa 0,0 l/m 0,0 km/h (0 Bft) W-SW 247 0 min 0,0 UV-I 11,8 C 13,8 C 0,0 km/h (0 Bft)
10.06.2013 03:40 13,1 C 22,5 C 14,0 C 13,7 C 13,7 C 0,6 C 92 % 90 % 0 % 1005,2 hPa 0,0 l/m 0,2 km/h (0 Bft) S-SW 202 0 min 0,0 UV-I 11,8 C 13,7 C 0,0 km/h (0 Bft)
10.06.2013 03:45 13,1 C 22,5 C 14,0 C 13,7 C 13,7 C 0,6 C 92 % 90 % 0 % 1005,2 hPa 0,0 l/m 0,2 km/h (0 Bft) SW 225 0 min 0,0 UV-I 11,8 C 13,7 C 0,0 km/h (0 Bft)
10.06.2013 03:50 13,1 C 22,5 C 14,0 C 13,8 C 13,8 C 0,7 C 92 % 89 % 0 % 1005,2 hPa 0,0 l/m 0,0 km/h (0 Bft) O-NO 67 0 min 0,0 UV-I 11,8 C 13,8 C 0,0 km/h (0 Bft)
10.06.2013 03:55 13,1 C 22,4 C 14,0 C 13,8 C 13,8 C 0,7 C 92 % 90 % 0 % 1004,9 hPa 0,0 l/m 0,0 km/h (0 Bft) O-NO 67 0 min 0,0 UV-I 11,8 C 13,8 C 0,0 km/h (0 Bft)
10.06.2013 04:00 13,1 C 22,5 C 13,9 C 13,8 C 13,8 C 0,7 C 92 % 90 % 0 % 1004,9 hPa 0,0 l/m 0,0 km/h (0 Bft) N-NO 22 0 min 0,0 UV-I 11,8 C 13,8 C 0,0 km/h (0 Bft)
10.06.2013 04:05 13,0 C 22,5 C 14,0 C 13,9 C 13,9 C 0,9 C 92 % 90 % 0 % 1004,9 hPa 0,0 l/m 0,0 km/h (0 Bft) O-SO 112 0 min 0,0 UV-I 11,7 C 13,9 C 0,0 km/h (0 Bft)
10.06.2013 04:10 13,1 C 22,5 C 14,1 C 13,9 C 13,9 C 0,8 C 92 % 90 % 0 % 1004,9 hPa 0,0 l/m 0,0 km/h (0 Bft) S 180 0 min 0,0 UV-I 11,8 C 13,9 C 0,0 km/h (0 Bft)
10.06.2013 04:15 13,1 C 22,5 C 14,1 C 13,9 C 13,9 C 0,8 C 92 % 90 % 0 % 1005,0 hPa 0,0 l/m 0,0 km/h (0 Bft) O-NO 67 0 min 0,0 UV-I 11,8 C 13,9 C 0,0 km/h (0 Bft)
10.06.2013 04:20 13,1 C 22,5 C 14,0 C 14,0 C 14,0 C 0,9 C 92 % 90 % 0 % 1005,0 hPa 0,0 l/m 0,0 km/h (0 Bft) SW 225 0 min 0,1 UV-I 11,8 C 14,0 C 0,0 km/h (0 Bft)
10.06.2013 04:25 13,2 C 22,5 C 14,0 C 14,0 C 14,0 C 0,8 C 92 % 90 % 0 % 1005,0 hPa 0,0 l/m 0,0 km/h (0 Bft) SO 135 0 min 0,1 UV-I 11,9 C 14,0 C 0,0 km/h (0 Bft)
10.06.2013 04:30 13,2 C 22,5 C 14,0 C 14,1 C 14,1 C 0,9 C 92 % 90 % 0 % 1005,0 hPa 0,0 l/m 0,0 km/h (0 Bft) SO 135 0 min 0,1 UV-I 11,9 C 14,1 C 0,0 km/h (0 Bft)
10.06.2013 04:35 13,2 C 22,5 C 14,1 C 14,1 C 14,1 C 0,9 C 92 % 90 % 0 % 1004,9 hPa 0,0 l/m 0,0 km/h (0 Bft) NO 45 0 min 0,1 UV-I 11,9 C 14,1 C 0,0 km/h (0 Bft)
10.06.2013 04:40 13,3 C 22,4 C 14,1 C 14,1 C 14,1 C 0,8 C 92 % 90 % 0 % 1004,9 hPa 0,0 l/m 0,0 km/h (0 Bft) N 360 0 min 0,1 UV-I 12,0 C 14,1 C 0,0 km/h (0 Bft)
10.06.2013 04:45 13,3 C 22,4 C 14,1 C 14,1 C 14,1 C 0,8 C 92 % 90 % 0 % 1004,9 hPa 0,0 l/m 0,0 km/h (0 Bft) O 90 0 min 0,1 UV-I 12,0 C 14,1 C 0,0 km/h (0 Bft)
10.06.2013 04:50 13,2 C 22,4 C 14,1 C 14,1 C 14,1 C 0,9 C 92 % 90 % 0 % 1004,9 hPa 0,0 l/m 0,0 km/h (0 Bft) O 90 0 min 0,1 UV-I 11,9 C 14,1 C 0,0 km/h (0 Bft)
10.06.2013 04:55 13,2 C 22,4 C 14,1 C 14,1 C 14,1 C 0,9 C 92 % 90 % 0 % 1004,9 hPa 0,0 l/m 0,0 km/h (0 Bft) O 90 0 min 0,1 UV-I 11,9 C 14,1 C 0,0 km/h (0 Bft)
10.06.2013 05:00 13,2 C 22,4 C 14,2 C 14,1 C 14,1 C 0,9 C 93 % 90 % 0 % 1004,9 hPa 0,0 l/m 0,0 km/h (0 Bft) W-SW 247 0 min 0,1 UV-I 12,1 C 14,1 C 0,0 km/h (0 Bft)
10.06.2013 05:05 13,2 C 22,4 C 14,2 C 14,1 C 14,1 C 0,9 C 92 % 90 % 0 % 1004,9 hPa 0,0 l/m 0,0 km/h (0 Bft) W-SW 247 0 min 0,1 UV-I 11,9 C 14,1 C 0,0 km/h (0 Bft)
10.06.2013 05:10 13,3 C 22,4 C 14,3 C 14,1 C 14,1 C 0,8 C 93 % 90 % 21 % 1004,9 hPa 0,0 l/m 0,0 km/h (0 Bft) S-SW 202 5 min 0,1 UV-I 12,2 C 14,1 C 0,0 km/h (0 Bft)
10.06.2013 05:15 13,3 C 22,4 C 14,3 C 14,1 C 14,1 C 0,8 C 93 % 90 % 21 % 1005,0 hPa 0,0 l/m 0,0 km/h (0 Bft) W-SW 247 5 min 0,1 UV-I 12,2 C 14,1 C 0,0 km/h (0 Bft)
10.06.2013 05:20 13,3 C 22,4 C 14,3 C 14,1 C 14,1 C 0,8 C 92 % 90 % 21 % 1005,0 hPa 0,0 l/m 0,0 km/h (0 Bft) SW 225 5 min 0,0 UV-I 12,0 C 14,1 C 0,0 km/h (0 Bft)
10.06.2013 05:25 13,3 C 22,4 C 14,3 C 14,1 C 14,1 C 0,8 C 92 % 90 % 21 % 1005,0 hPa 0,0 l/m 0,0 km/h (0 Bft) W-SW 247 5 min 0,0 UV-I 12,0 C 14,1 C 0,0 km/h (0 Bft)
10.06.2013 05:30 13,3 C 22,4 C 14,3 C 14,1 C 14,1 C 0,8 C 92 % 90 % 21 % 1005,0 hPa 0,0 l/m 0,0 km/h (0 Bft) W-SW 247 5 min 0,1 UV-I 12,0 C 14,1 C 0,0 km/h (0 Bft)
10.06.2013 05:35 13,3 C 22,4 C 14,3 C 14,1 C 14,1 C 0,8 C 93 % 90 % 21 % 1005,0 hPa 0,0 l/m 0,0 km/h (0 Bft) W 270 5 min 0,1 UV-I 12,2 C 14,1 C 0,0 km/h (0 Bft)
10.06.2013 05:40 13,3 C 22,4 C 14,3 C 14,1 C 14,1 C 0,8 C 92 % 90 % 21 % 1005,0 hPa 0,0 l/m 0,0 km/h (0 Bft) SW 225 0 min 0,0 UV-I 12,0 C 14,1 C 0,0 km/h (0 Bft)
10.06.2013 05:45 13,3 C 22,4 C 14,3 C 14,2 C 14,2 C 0,9 C 93 % 90 % 24 % 1005,0 hPa 0,0 l/m 0,0 km/h (0 Bft) NW 315 0 min 0,0 UV-I 12,2 C 14,2 C 0,0 km/h (0 Bft)
10.06.2013 05:50 13,4 C 22,4 C 14,2 C 14,2 C 14,2 C 0,8 C 93 % 90 % 21 % 1005,0 hPa 0,0 l/m 0,0 km/h (0 Bft) SW 225 0 min 0,1 UV-I 12,3 C 14,2 C 0,0 km/h (0 Bft)
10.06.2013 05:55 13,3 C 22,4 C 14,3 C 14,4 C 14,4 C 1,1 C 93 % 90 % 29 % 1004,9 hPa 0,0 l/m 0,0 km/h (0 Bft) SW 225 0 min 0,1 UV-I 12,2 C 14,4 C 0,0 km/h (0 Bft)
10.06.2013 06:00 13,5 C 22,4 C 14,3 C 14,4 C 14,4 C 0,9 C 93 % 90 % 24 % 1004,9 hPa 0,0 l/m 0,0 km/h (0 Bft) SW 225 0 min 0,1 UV-I 12,4 C 14,4 C 0,0 km/h (0 Bft)
10.06.2013 06:05 13,5 C 22,4 C 14,3 C 14,4 C 14,4 C 0,9 C 93 % 90 % 24 % 1004,9 hPa 0,0 l/m 0,0 km/h (0 Bft) SW 225 0 min 0,1 UV-I 12,4 C 14,4 C 0,0 km/h (0 Bft)
10.06.2013 06:10 13,5 C 22,4 C 14,3 C 14,4 C 14,4 C 0,9 C 93 % 90 % 24 % 1004,9 hPa 0,0 l/m 0,0 km/h (0 Bft) W-NW 292 0 min 0,1 UV-I 12,4 C 14,4 C 0,0 km/h (0 Bft)
10.06.2013 06:15 13,5 C 22,4 C 14,4 C 14,4 C 14,4 C 0,9 C 93 % 90 % 24 % 1004,9 hPa 0,0 l/m 0,0 km/h (0 Bft) NW 315 0 min 0,1 UV-I 12,4 C 14,4 C 0,0 km/h (0 Bft)
10.06.2013 06:20 13,6 C 22,4 C 14,4 C 14,5 C 14,5 C 0,9 C 93 % 90 % 24 % 1004,9 hPa 0,0 l/m 0,0 km/h (0 Bft) S 180 0 min 0,1 UV-I 12,5 C 14,5 C 0,0 km/h (0 Bft)
10.06.2013 06:25 13,6 C 22,4 C 14,5 C 14,5 C 14,5 C 0,9 C 93 % 90 % 24 % 1004,9 hPa 0,0 l/m 0,0 km/h (0 Bft) O-SO 112 0 min 0,1 UV-I 12,5 C 14,5 C 0,0 km/h (0 Bft)
10.06.2013 06:30 13,7 C 22,4 C 14,5 C 14,5 C 14,5 C 0,8 C 93 % 90 % 21 % 1004,9 hPa 0,0 l/m 0,0 km/h (0 Bft) O 90 0 min 0,1 UV-I 12,6 C 14,5 C 0,0 km/h (0 Bft)
10.06.2013 06:35 13,7 C 22,4 C 14,5 C 14,6 C 14,6 C 0,9 C 93 % 90 % 24 % 1005,0 hPa 0,0 l/m 0,0 km/h (0 Bft) O 90 0 min 0,1 UV-I 12,6 C 14,6 C 0,0 km/h (0 Bft)
10.06.2013 06:41 13,6 C 22,4 C 14,4 C 14,6 C 14,6 C 1,0 C 93 % 90 % 26 % 1005,0 hPa 0,0 l/m 0,0 km/h (0 Bft) N 0 0 min 0,1 UV-I 12,5 C 14,6 C 0,0 km/h (0 Bft)
10.06.2013 07:00 13,6 C 22,4 C 14,4 C 14,6 C 14,6 C 1,0 C 93 % 90 % 26 % 1005,2 hPa 0,0 l/m 0,0 km/h (0 Bft) NO 45 0 min 0,1 UV-I 12,5 C 14,6 C 0,0 km/h (0 Bft)
10.06.2013 07:05 13,7 C 22,4 C 14,4 C 14,6 C 14,6 C 0,9 C 93 % 90 % 24 % 1005,2 hPa 0,0 l/m 0,2 km/h (0 Bft) O-SO 112 0 min 0,1 UV-I 12,6 C 14,6 C 0,0 km/h (0 Bft)
10.06.2013 07:10 13,6 C 22,4 C 14,4 C 14,5 C 14,5 C 0,9 C 93 % 90 % 24 % 1005,2 hPa 0,0 l/m 0,5 km/h (0 Bft) SO 135 0 min 0,1 UV-I 12,5 C 14,5 C 4,2 km/h (1 Bft)
10.06.2013 07:15 13,6 C 22,4 C 14,5 C 14,5 C 14,5 C 0,9 C 93 % 90 % 24 % 1004,8 hPa 0,0 l/m 0,5 km/h (0 Bft) NO 45 0 min 0,1 UV-I 12,5 C 14,5 C 0,0 km/h (0 Bft)
10.06.2013 07:20 13,6 C 22,4 C 14,5 C 14,5 C 14,5 C 0,9 C 93 % 90 % 24 % 1004,8 hPa 0,0 l/m 0,3 km/h (0 Bft) O-NO 67 0 min 0,1 UV-I 12,5 C 14,5 C 1,8 km/h (1 Bft)
10.06.2013 07:25 13,6 C 22,4 C 14,4 C 14,5 C 14,5 C 0,9 C 93 % 90 % 24 % 1004,8 hPa 0,0 l/m 0,5 km/h (0 Bft) N-NO 22 0 min 0,1 UV-I 12,5 C 14,5 C 0,0 km/h (0 Bft)
10.06.2013 07:30 13,7 C 22,4 C 14,4 C 14,5 C 14,5 C 0,8 C 93 % 90 % 21 % 1004,8 hPa 0,7 l/m 0,5 km/h (0 Bft) O-SO 112 0 min 0,2 UV-I 12,6 C 14,5 C 0,0 km/h (0 Bft)
10.06.2013 07:35 13,7 C 22,4 C 14,4 C 14,5 C 14,5 C 0,8 C 93 % 90 % 21 % 1004,9 hPa 0,0 l/m 0,2 km/h (0 Bft) O-SO 112 0 min 0,2 UV-I 12,6 C 14,5 C 0,0 km/h (0 Bft)
10.06.2013 07:40 13,6 C 22,4 C 14,4 C 14,5 C 14,5 C 0,9 C 93 % 90 % 24 % 1004,9 hPa 0,0 l/m 0,0 km/h (0 Bft) N-NO 22 0 min 0,2 UV-I 12,5 C 14,5 C 0,0 km/h (0 Bft)
10.06.2013 07:45 13,6 C 22,4 C 14,5 C 14,6 C 14,6 C 1,0 C 93 % 90 % 26 % 1004,9 hPa 0,0 l/m 0,0 km/h (0 Bft) NW 315 0 min 0,2 UV-I 12,5 C 14,6 C 0,0 km/h (0 Bft)
10.06.2013 07:50 13,6 C 22,4 C 14,4 C 14,6 C 14,6 C 1,0 C 93 % 90 % 26 % 1004,9 hPa 0,0 l/m 0,3 km/h (0 Bft) NW 315 0 min 0,2 UV-I 12,5 C 14,6 C 5,1 km/h (1 Bft)
10.06.2013 07:55 13,6 C 22,4 C 14,4 C 14,6 C 14,6 C 1,0 C 93 % 90 % 26 % 1005,2 hPa 0,0 l/m 0,3 km/h (0 Bft) N 360 0 min 0,2 UV-I 12,5 C 14,6 C 0,0 km/h (0 Bft)
10.06.2013 08:00 13,6 C 22,4 C 14,5 C 14,6 C 14,6 C 1,0 C 93 % 90 % 26 % 1005,2 hPa 0,0 l/m 1,3 km/h (1 Bft) W 270 0 min 0,2 UV-I 12,5 C 14,6 C 3,5 km/h (1 Bft)
10.06.2013 08:05 13,6 C 22,4 C 14,3 C 14,6 C 14,6 C 1,0 C 93 % 90 % 26 % 1005,2 hPa 0,0 l/m 1,4 km/h (1 Bft) O-SO 112 0 min 0,2 UV-I 12,5 C 14,6 C 0,0 km/h (0 Bft)
10.06.2013 08:10 13,6 C 22,4 C 14,3 C 14,6 C 14,6 C 1,0 C 93 % 90 % 26 % 1005,2 hPa 0,7 l/m 1,0 km/h (0 Bft) O-SO 112 0 min 0,2 UV-I 12,5 C 14,6 C 0,0 km/h (0 Bft)
10.06.2013 08:15 13,5 C 22,4 C 14,3 C 14,5 C 14,5 C 1,0 C 93 % 90 % 26 % 1005,6 hPa 0,0 l/m 0,6 km/h (0 Bft) O-SO 112 0 min 0,2 UV-I 12,4 C 14,5 C 0,0 km/h (0 Bft)
10.06.2013 08:20 13,5 C 22,4 C 14,3 C 14,5 C 14,5 C 1,0 C 93 % 90 % 26 % 1005,6 hPa 0,0 l/m 1,0 km/h (0 Bft) W 270 0 min 0,2 UV-I 12,4 C 14,5 C 5,8 km/h (2 Bft)
10.06.2013 08:25 13,5 C 22,4 C 14,2 C 14,5 C 14,5 C 1,0 C 93 % 90 % 26 % 1005,6 hPa 0,7 l/m 1,0 km/h (0 Bft) N-NO 22 0 min 0,2 UV-I 12,4 C 14,5 C 0,0 km/h (0 Bft)
10.06.2013 08:30 13,5 C 22,4 C 14,3 C 14,5 C 14,5 C 1,0 C 93 % 90 % 26 % 1005,6 hPa 0,0 l/m 0,3 km/h (0 Bft) N-NO 22 0 min 0,2 UV-I 12,4 C 14,5 C 0,0 km/h (0 Bft)
10.06.2013 08:35 13,5 C 22,4 C 14,2 C 14,5 C 14,5 C 1,0 C 93 % 90 % 26 % 1005,6 hPa 0,0 l/m 0,0 km/h (0 Bft) O 90 0 min 0,2 UV-I 12,4 C 14,5 C 0,0 km/h (0 Bft)
10.06.2013 08:40 13,5 C 22,4 C 14,3 C 14,6 C 14,6 C 1,1 C 93 % 90 % 29 % 1005,6 hPa 0,0 l/m 0,0 km/h (0 Bft) NO 45 0 min 0,1 UV-I 12,4 C 14,6 C 1,6 km/h (1 Bft)
10.06.2013 08:45 13,5 C 22,4 C 14,2 C 14,5 C 14,5 C 1,0 C 93 % 90 % 26 % 1005,6 hPa 0,0 l/m 0,2 km/h (0 Bft) O 90 0 min 0,1 UV-I 12,4 C 14,5 C 0,0 km/h (0 Bft)
10.06.2013 08:50 13,5 C 22,4 C 14,2 C 14,5 C 14,5 C 1,0 C 93 % 90 % 26 % 1005,6 hPa 0,0 l/m 0,5 km/h (0 Bft) N-NW 337 0 min 0,0 UV-I 12,4 C 14,5 C 0,0 km/h (0 Bft)
10.06.2013 08:55 13,5 C 22,4 C 14,3 C 14,5 C 14,5 C 1,0 C 93 % 90 % 26 % 1005,8 hPa 0,0 l/m 0,8 km/h (0 Bft) W 270 0 min 0,0 UV-I 12,4 C 14,5 C 0,0 km/h (0 Bft)
10.06.2013 09:00 13,6 C 22,4 C 14,3 C 14,6 C 14,6 C 1,0 C 93 % 90 % 26 % 1005,8 hPa 0,0 l/m 0,5 km/h (0 Bft) O-NO 67 0 min 0,1 UV-I 12,5 C 14,6 C 0,0 km/h (0 Bft)
10.06.2013 09:05 13,5 C 22,4 C 14,3 C 14,6 C 14,6 C 1,1 C 93 % 90 % 29 % 1005,8 hPa 0,0 l/m 0,3 km/h (0 Bft) O-SO 112 0 min 0,1 UV-I 12,4 C 14,6 C 0,0 km/h (0 Bft)
10.06.2013 09:10 13,5 C 22,4 C 14,3 C 14,7 C 14,7 C 1,2 C 93 % 90 % 32 % 1005,8 hPa 0,0 l/m 0,5 km/h (0 Bft) O-SO 112 0 min 0,0 UV-I 12,4 C 14,7 C 0,0 km/h (0 Bft)
10.06.2013 09:15 13,5 C 22,4 C 14,3 C 14,6 C 14,6 C 1,1 C 93 % 90 % 29 % 1006,1 hPa 0,0 l/m 0,3 km/h (0 Bft) O-NO 67 0 min 0,0 UV-I 12,4 C 14,6 C 0,0 km/h (0 Bft)
10.06.2013 09:20 13,6 C 22,4 C 14,3 C 14,6 C 14,6 C 1,0 C 93 % 90 % 26 % 1006,1 hPa 0,0 l/m 0,2 km/h (0 Bft) O 90 0 min 0,0 UV-I 12,5 C 14,6 C 0,0 km/h (0 Bft)
10.06.2013 09:25 13,5 C 22,4 C 14,2 C 14,6 C 14,6 C 1,1 C 93 % 90 % 29 % 1006,1 hPa 0,0 l/m 0,5 km/h (0 Bft) O-NO 67 0 min 0,0 UV-I 12,4 C 14,6 C 0,0 km/h (0 Bft)
10.06.2013 09:30 13,6 C 22,4 C 14,3 C 14,7 C 14,7 C 1,1 C 93 % 90 % 29 % 1006,1 hPa 0,0 l/m 0,6 km/h (0 Bft) W-SW 247 0 min 0,1 UV-I 12,5 C 14,7 C 0,0 km/h (0 Bft)
10.06.2013 09:35 13,6 C 22,4 C 14,2 C 14,7 C 14,7 C 1,1 C 93 % 90 % 29 % 1006,3 hPa 0,0 l/m 0,3 km/h (0 Bft) W-NW 292 0 min 0,1 UV-I 12,5 C 14,7 C 2,1 km/h (1 Bft)
10.06.2013 09:40 13,5 C 22,3 C 14,3 C 14,7 C 14,7 C 1,2 C 93 % 90 % 32 % 1006,3 hPa 0,0 l/m 0,6 km/h (0 Bft) N-NO 22 0 min 0,0 UV-I 12,4 C 14,7 C 1,8 km/h (1 Bft)
10.06.2013 09:45 13,6 C 22,3 C 14,3 C 14,7 C 14,7 C 1,1 C 93 % 90 % 29 % 1006,3 hPa 0,0 l/m 1,1 km/h (1 Bft) NO 45 0 min 0,0 UV-I 12,5 C 14,7 C 2,1 km/h (1 Bft)
10.06.2013 09:50 13,5 C 22,3 C 14,2 C 14,7 C 14,7 C 1,2 C 93 % 90 % 32 % 1006,3 hPa 0,0 l/m 0,8 km/h (0 Bft) S-SW 202 0 min 0,0 UV-I 12,4 C 14,7 C 0,0 km/h (0 Bft)
10.06.2013 09:55 13,5 C 22,3 C 14,3 C 14,8 C 14,8 C 1,3 C 93 % 90 % 34 % 1006,4 hPa 0,0 l/m 0,5 km/h (0 Bft) NW 315 0 min 0,0 UV-I 12,4 C 14,8 C 1,8 km/h (1 Bft)
10.06.2013 10:00 13,6 C 22,3 C 14,2 C 14,9 C 14,9 C 1,3 C 93 % 90 % 34 % 1006,4 hPa 0,0 l/m 0,3 km/h (0 Bft) W-SW 247 0 min 0,0 UV-I 12,5 C 14,9 C 0,0 km/h (0 Bft)
10.06.2013 10:05 13,6 C 22,3 C 14,2 C 14,8 C 14,8 C 1,2 C 93 % 90 % 32 % 1006,4 hPa 0,0 l/m 0,6 km/h (0 Bft) W-NW 292 0 min 0,0 UV-I 12,5 C 14,8 C 0,0 km/h (0 Bft)
10.06.2013 10:10 13,4 C 22,3 C 14,1 C 14,7 C 14,7 C 1,3 C 93 % 90 % 34 % 1006,4 hPa 0,0 l/m 1,4 km/h (1 Bft) NW 315 0 min 0,0 UV-I 12,3 C 14,7 C 0,0 km/h (0 Bft)
10.06.2013 10:15 13,5 C 22,3 C 14,1 C 14,7 C 14,7 C 1,2 C 93 % 90 % 32 % 1006,6 hPa 0,0 l/m 1,6 km/h (1 Bft) O-SO 112 0 min 0,0 UV-I 12,4 C 14,7 C 0,0 km/h (0 Bft)
10.06.2013 10:20 13,5 C 22,3 C 14,1 C 14,9 C 14,9 C 1,4 C 92 % 90 % 37 % 1006,6 hPa 0,0 l/m 0,8 km/h (0 Bft) NW 315 0 min 0,1 UV-I 12,2 C 14,9 C 1,8 km/h (1 Bft)
10.06.2013 10:25 13,5 C 22,3 C 14,2 C 15,0 C 15,0 C 1,5 C 92 % 90 % 39 % 1006,6 hPa 0,0 l/m 1,1 km/h (1 Bft) N-NW 337 0 min 0,1 UV-I 12,2 C 15,0 C 1,9 km/h (1 Bft)
10.06.2013 10:30 13,5 C 22,6 C 14,2 C 15,2 C 15,2 C 1,7 C 92 % 90 % 45 % 1006,6 hPa 0,0 l/m 1,4 km/h (1 Bft) SW 225 0 min 0,0 UV-I 12,2 C 15,2 C 0,0 km/h (0 Bft)
10.06.2013 10:35 13,5 C 22,7 C 14,1 C 15,2 C 15,2 C 1,7 C 92 % 90 % 45 % 1006,8 hPa 0,0 l/m 1,1 km/h (1 Bft) N-NW 337 0 min 0,0 UV-I 12,2 C 15,2 C 4,8 km/h (1 Bft)
10.06.2013 10:40 13,5 C 22,7 C 14,2 C 15,4 C 15,4 C 1,9 C 92 % 90 % 50 % 1006,8 hPa 0,0 l/m 1,4 km/h (1 Bft) NO 45 0 min 0,0 UV-I 12,2 C 15,4 C 4,0 km/h (1 Bft)
10.06.2013 10:45 13,5 C 22,7 C 14,3 C 15,5 C 15,5 C 2,0 C 92 % 90 % 53 % 1006,8 hPa 0,0 l/m 2,1 km/h (1 Bft) N-NO 22 0 min 0,0 UV-I 12,2 C 15,5 C 3,1 km/h (1 Bft)
10.06.2013 10:50 13,6 C 22,8 C 14,2 C 15,8 C 15,8 C 2,2 C 92 % 90 % 58 % 1006,8 hPa 0,0 l/m 1,9 km/h (1 Bft) N-NO 22 0 min 0,0 UV-I 12,3 C 15,8 C 6,1 km/h (2 Bft)
10.06.2013 10:55 13,6 C 22,7 C 14,4 C 16,1 C 16,1 C 2,5 C 92 % 90 % 66 % 1006,6 hPa 0,0 l/m 1,8 km/h (1 Bft) NW 315 0 min 0,0 UV-I 12,3 C 16,1 C 2,3 km/h (1 Bft)
10.06.2013 11:00 13,8 C 22,8 C 14,5 C 16,2 C 16,2 C 2,4 C 92 % 90 % 63 % 1006,6 hPa 0,0 l/m 1,6 km/h (1 Bft) N-NO 22 0 min 0,0 UV-I 12,5 C 16,2 C 4,8 km/h (1 Bft)
10.06.2013 11:05 13,7 C 22,7 C 14,4 C 16,1 C 16,1 C 2,4 C 92 % 90 % 63 % 1006,6 hPa 0,0 l/m 2,7 km/h (1 Bft) S-SW 202 0 min 0,0 UV-I 12,4 C 16,1 C 7,9 km/h (2 Bft)
10.06.2013 11:10 13,8 C 22,7 C 14,7 C 16,4 C 16,4 C 2,6 C 92 % 90 % 68 % 1006,6 hPa 0,0 l/m 2,9 km/h (1 Bft) NW 315 0 min 0,0 UV-I 12,5 C 16,4 C 8,9 km/h (2 Bft)
10.06.2013 11:15 13,9 C 22,8 C 14,7 C 16,5 C 16,5 C 2,6 C 92 % 90 % 68 % 1006,7 hPa 0,0 l/m 2,7 km/h (1 Bft) O 90 0 min 0,0 UV-I 12,6 C 16,5 C 4,0 km/h (1 Bft)
10.06.2013 11:20 13,9 C 22,7 C 14,7 C 16,5 C 16,5 C 2,6 C 92 % 90 % 68 % 1006,7 hPa 0,0 l/m 2,3 km/h (1 Bft) NW 315 0 min 0,0 UV-I 12,6 C 16,5 C 4,7 km/h (1 Bft)
10.06.2013 11:25 13,9 C 22,8 C 14,5 C 16,4 C 16,4 C 2,5 C 92 % 89 % 66 % 1006,7 hPa 0,0 l/m 1,8 km/h (1 Bft) N-NO 22 0 min 0,0 UV-I 12,6 C 16,4 C 0,0 km/h (0 Bft)
10.06.2013 11:30 13,9 C 22,7 C 14,4 C 16,2 C 16,2 C 2,3 C 91 % 89 % 61 % 1006,7 hPa 0,0 l/m 2,6 km/h (1 Bft) N-NW 337 0 min 0,0 UV-I 12,5 C 16,2 C 3,4 km/h (1 Bft)
10.06.2013 11:35 13,7 C 22,7 C 14,2 C 16,0 C 16,0 C 2,3 C 91 % 89 % 61 % 1007,0 hPa 0,0 l/m 3,1 km/h (1 Bft) O-NO 67 0 min 0,0 UV-I 12,3 C 16,0 C 3,1 km/h (1 Bft)
10.06.2013 11:40 13,7 C 22,7 C 14,5 C 16,1 C 16,1 C 2,4 C 91 % 89 % 63 % 1007,0 hPa 0,0 l/m 2,7 km/h (1 Bft) NO 45 0 min 0,0 UV-I 12,3 C 16,1 C 5,5 km/h (1 Bft)
10.06.2013 11:45 13,8 C 22,8 C 14,4 C 16,1 C 16,1 C 2,3 C 91 % 89 % 61 % 1007,0 hPa 0,0 l/m 1,9 km/h (1 Bft) N-NW 337 0 min 0,0 UV-I 12,4 C 16,1 C 2,7 km/h (1 Bft)
10.06.2013 11:50 13,7 C 22,7 C 14,4 C 15,9 C 15,9 C 2,2 C 90 % 89 % 58 % 1007,0 hPa 0,0 l/m 1,9 km/h (1 Bft) N-NO 22 0 min 0,0 UV-I 12,1 C 15,9 C 3,5 km/h (1 Bft)
10.06.2013 11:55 13,7 C 22,7 C 14,4 C 15,9 C 15,9 C 2,2 C 90 % 89 % 58 % 1007,3 hPa 0,0 l/m 2,3 km/h (1 Bft) NW 315 0 min 0,0 UV-I 12,1 C 15,9 C 6,4 km/h (2 Bft)
10.06.2013 12:00 13,7 C 22,8 C 14,4 C 15,9 C 15,9 C 2,2 C 90 % 89 % 58 % 1007,3 hPa 0,0 l/m 2,6 km/h (1 Bft) NW 315 0 min 0,0 UV-I 12,1 C 15,9 C 3,9 km/h (1 Bft)
10.06.2013 12:05 13,6 C 22,8 C 14,4 C 15,8 C 15,8 C 2,2 C 90 % 89 % 58 % 1007,3 hPa 0,0 l/m 2,7 km/h (1 Bft) N-NW 337 0 min 0,0 UV-I 12,0 C 15,8 C 3,1 km/h (1 Bft)
10.06.2013 12:10 13,6 C 22,7 C 14,3 C 15,6 C 15,6 C 2,0 C 89 % 89 % 53 % 1007,3 hPa 0,0 l/m 3,4 km/h (1 Bft) W 270 0 min 0,0 UV-I 11,8 C 15,6 C 2,7 km/h (1 Bft)
10.06.2013 12:15 13,7 C 22,7 C 14,3 C 15,7 C 15,7 C 2,0 C 90 % 89 % 53 % 1007,5 hPa 0,0 l/m 3,1 km/h (1 Bft) N-NW 337 0 min 0,0 UV-I 12,1 C 15,7 C 1,8 km/h (1 Bft)
10.06.2013 12:20 13,5 C 22,7 C 14,3 C 15,6 C 15,6 C 2,1 C 89 % 89 % 55 % 1007,5 hPa 0,0 l/m 2,9 km/h (1 Bft) NW 315 0 min 0,0 UV-I 11,7 C 15,6 C 4,5 km/h (1 Bft)
10.06.2013 12:25 13,6 C 22,7 C 14,3 C 15,7 C 15,7 C 2,1 C 89 % 89 % 55 % 1007,5 hPa 0,0 l/m 2,6 km/h (1 Bft) O 90 0 min 0,0 UV-I 11,8 C 15,7 C 1,9 km/h (1 Bft)
10.06.2013 12:30 13,7 C 22,7 C 14,5 C 16,1 C 16,1 C 2,4 C 90 % 89 % 63 % 1007,5 hPa 0,0 l/m 1,0 km/h (0 Bft) O-NO 67 0 min 0,0 UV-I 12,1 C 16,1 C 1,8 km/h (1 Bft)
10.06.2013 12:35 13,8 C 22,7 C 14,6 C 16,3 C 16,3 C 2,5 C 90 % 90 % 66 % 1007,6 hPa 0,0 l/m 0,5 km/h (0 Bft) N-NW 337 0 min 0,0 UV-I 12,2 C 16,3 C 2,3 km/h (1 Bft)
10.06.2013 12:41 13,9 C 22,8 C 14,6 C 16,5 C 16,5 C 2,6 C 90 % 90 % 68 % 1007,6 hPa 0,0 l/m 1,1 km/h (1 Bft) N 0 0 min 0,0 UV-I 12,3 C 16,5 C 2,7 km/h (1 Bft)
10.06.2013 13:00 14,0 C 22,8 C 14,8 C 17,1 C 17,1 C 3,1 C 89 % 89 % 82 % 1007,6 hPa 0,0 l/m 2,3 km/h (1 Bft) SW 225 0 min 0,0 UV-I 12,2 C 17,1 C 0,0 km/h (0 Bft)
10.06.2013 13:05 13,9 C 22,7 C 14,7 C 17,1 C 17,1 C 3,2 C 88 % 89 % 84 % 1007,6 hPa 0,0 l/m 2,6 km/h (1 Bft) S-SO 157 0 min 0,0 UV-I 11,9 C 17,1 C 3,5 km/h (1 Bft)
10.06.2013 13:10 14,0 C 22,6 C 14,7 C 16,9 C 16,9 C 2,9 C 87 % 89 % 76 % 1007,6 hPa 0,0 l/m 2,7 km/h (1 Bft) NW 315 0 min 0,0 UV-I 11,9 C 16,9 C 6,1 km/h (2 Bft)
10.06.2013 13:15 13,9 C 22,7 C 14,5 C 16,6 C 16,6 C 2,7 C 87 % 89 % 71 % 1007,8 hPa 0,0 l/m 3,2 km/h (1 Bft) NW 315 0 min 0,0 UV-I 11,8 C 16,6 C 3,4 km/h (1 Bft)
10.06.2013 13:20 13,9 C 22,7 C 14,5 C 16,5 C 16,5 C 2,6 C 87 % 89 % 68 % 1007,8 hPa 0,0 l/m 3,1 km/h (1 Bft) W-SW 247 0 min 0,0 UV-I 11,8 C 16,5 C 2,9 km/h (1 Bft)
10.06.2013 13:25 13,9 C 22,6 C 14,7 C 16,4 C 16,4 C 2,5 C 87 % 89 % 66 % 1007,8 hPa 0,0 l/m 2,3 km/h (1 Bft) NW 315 0 min 0,0 UV-I 11,8 C 16,4 C 8,0 km/h (2 Bft)
10.06.2013 13:30 13,9 C 22,6 C 14,7 C 16,4 C 16,4 C 2,5 C 87 % 89 % 66 % 1007,8 hPa 0,0 l/m 2,4 km/h (1 Bft) NO 45 0 min 0,0 UV-I 11,8 C 16,4 C 2,1 km/h (1 Bft)
10.06.2013 13:35 13,9 C 22,6 C 14,7 C 16,3 C 16,3 C 2,4 C 87 % 89 % 63 % 1007,8 hPa 0,0 l/m 2,6 km/h (1 Bft) N-NW 337 0 min 0,0 UV-I 11,8 C 16,3 C 4,8 km/h (1 Bft)
10.06.2013 13:40 13,9 C 22,6 C 14,7 C 16,3 C 16,3 C 2,4 C 87 % 89 % 63 % 1007,8 hPa 0,0 l/m 1,8 km/h (1 Bft) NW 315 0 min 0,0 UV-I 11,8 C 16,3 C 3,7 km/h (1 Bft)
10.06.2013 13:45 14,0 C 22,6 C 14,6 C 16,3 C 16,3 C 2,3 C 87 % 88 % 61 % 1007,8 hPa 0,0 l/m 1,4 km/h (1 Bft) S-SW 202 0 min 0,0 UV-I 11,9 C 16,3 C 1,8 km/h (1 Bft)
10.06.2013 13:50 14,0 C 22,5 C 14,7 C 16,4 C 16,4 C 2,4 C 86 % 89 % 63 % 1007,8 hPa 0,0 l/m 1,1 km/h (1 Bft) O 90 0 min 0,0 UV-I 11,7 C 16,4 C 0,0 km/h (0 Bft)
10.06.2013 13:55 14,0 C 22,4 C 14,7 C 16,5 C 16,5 C 2,5 C 86 % 88 % 66 % 1008,0 hPa 0,0 l/m 1,3 km/h (1 Bft) NW 315 0 min 0,0 UV-I 11,7 C 16,5 C 2,4 km/h (1 Bft)
10.06.2013 14:00 14,1 C 22,5 C 14,7 C 16,7 C 16,7 C 2,6 C 86 % 88 % 68 % 1008,0 hPa 0,0 l/m 1,1 km/h (1 Bft) O-NO 67 0 min 0,0 UV-I 11,8 C 16,7 C 0,0 km/h (0 Bft)
10.06.2013 14:05 14,2 C 22,3 C 14,8 C 16,8 C 16,8 C 2,6 C 86 % 88 % 68 % 1008,0 hPa 0,0 l/m 0,5 km/h (0 Bft) SW 225 0 min 0,0 UV-I 11,9 C 16,8 C 0,0 km/h (0 Bft)
10.06.2013 14:10 14,3 C 22,3 C 15,1 C 17,2 C 17,2 C 2,9 C 86 % 89 % 76 % 1008,0 hPa 0,0 l/m 0,3 km/h (0 Bft) W 270 0 min 0,0 UV-I 12,0 C 17,2 C 2,6 km/h (1 Bft)
10.06.2013 14:15 14,5 C 22,1 C 15,1 C 17,2 C 17,2 C 2,7 C 87 % 89 % 71 % 1007,9 hPa 0,0 l/m 0,6 km/h (0 Bft) N-NW 337 0 min 0,0 UV-I 12,4 C 17,2 C 0,0 km/h (0 Bft)
10.06.2013 14:20 14,5 C 22,1 C 15,2 C 17,2 C 17,2 C 2,7 C 87 % 88 % 71 % 1007,9 hPa 0,0 l/m 0,6 km/h (0 Bft) N 360 0 min 0,0 UV-I 12,4 C 17,2 C 2,4 km/h (1 Bft)
10.06.2013 14:25 14,7 C 22,1 C 15,2 C 17,2 C 17,2 C 2,5 C 86 % 88 % 66 % 1007,9 hPa 0,0 l/m 0,8 km/h (0 Bft) S 180 0 min 0,0 UV-I 12,4 C 17,2 C 0,0 km/h (0 Bft)
10.06.2013 14:30 14,7 C 22,1 C 15,2 C 17,2 C 17,2 C 2,5 C 86 % 88 % 66 % 1007,9 hPa 0,0 l/m 1,3 km/h (1 Bft) S 180 0 min 0,0 UV-I 12,4 C 17,2 C 1,9 km/h (1 Bft)
10.06.2013 14:35 14,7 C 22,0 C 15,4 C 17,3 C 17,3 C 2,6 C 86 % 88 % 68 % 1008,1 hPa 0,0 l/m 1,1 km/h (1 Bft) SW 225 0 min 0,0 UV-I 12,4 C 17,3 C 3,1 km/h (1 Bft)
10.06.2013 14:40 14,8 C 22,0 C 15,4 C 17,4 C 17,4 C 2,6 C 85 % 88 % 68 % 1008,1 hPa 0,0 l/m 1,8 km/h (1 Bft) SW 225 0 min 0,0 UV-I 12,3 C 17,4 C 4,8 km/h (1 Bft)
10.06.2013 14:45 14,8 C 21,9 C 15,5 C 17,4 C 17,4 C 2,6 C 85 % 88 % 68 % 1008,1 hPa 0,0 l/m 1,6 km/h (1 Bft) W-SW 247 0 min 0,0 UV-I 12,3 C 17,4 C 3,1 km/h (1 Bft)
10.06.2013 14:50 14,9 C 22,0 C 15,7 C 17,6 C 17,6 C 2,7 C 85 % 88 % 71 % 1008,1 hPa 0,0 l/m 1,8 km/h (1 Bft) NO 45 0 min 0,0 UV-I 12,4 C 17,6 C 0,0 km/h (0 Bft)
10.06.2013 14:55 14,9 C 22,0 C 15,7 C 17,7 C 17,7 C 2,8 C 85 % 88 % 74 % 1008,1 hPa 0,0 l/m 1,3 km/h (1 Bft) S-SW 202 0 min 0,0 UV-I 12,4 C 17,7 C 0,0 km/h (0 Bft)
10.06.2013 15:00 15,1 C 21,9 C 16,1 C 18,3 C 18,3 C 3,2 C 86 % 88 % 84 % 1008,1 hPa 0,0 l/m 0,2 km/h (0 Bft) S 180 0 min 0,0 UV-I 12,8 C 18,3 C 0,0 km/h (0 Bft)
10.06.2013 15:05 15,2 C 21,9 C 16,2 C 18,6 C 18,6 C 3,4 C 86 % 88 % 89 % 1008,1 hPa 0,0 l/m 0,3 km/h (0 Bft) W 270 5 min 0,0 UV-I 12,9 C 18,6 C 1,8 km/h (1 Bft)
10.06.2013 15:10 15,5 C 21,9 C 16,3 C 19,0 C 19,0 C 3,5 C 85 % 88 % 92 % 1008,1 hPa 0,0 l/m 0,5 km/h (0 Bft) S 180 5 min 0,0 UV-I 13,0 C 19,0 C 0,0 km/h (0 Bft)
10.06.2013 15:15 15,7 C 21,8 C 16,4 C 19,2 C 19,2 C 3,5 C 85 % 88 % 92 % 1008,1 hPa 0,0 l/m 0,5 km/h (0 Bft) SW 225 5 min 0,0 UV-I 13,2 C 19,2 C 0,0 km/h (0 Bft)
10.06.2013 15:20 15,9 C 21,8 C 16,7 C 19,8 C 19,8 C 3,9 C 85 % 88 % 100 % 1008,1 hPa 0,0 l/m 0,3 km/h (0 Bft) O-SO 112 5 min 0,0 UV-I 13,4 C 19,8 C 2,1 km/h (1 Bft)
10.06.2013 15:25 16,0 C 21,7 C 16,7 C 20,0 C 20,0 C 4,0 C 84 % 88 % 100 % 1008,1 hPa 0,0 l/m 0,2 km/h (0 Bft) S 180 5 min 0,0 UV-I 13,3 C 20,0 C 0,0 km/h (0 Bft)
10.06.2013 15:30 16,4 C 21,8 C 16,8 C 20,3 C 20,3 C 3,9 C 83 % 87 % 100 % 1008,1 hPa 0,0 l/m 0,5 km/h (0 Bft) W-SW 247 5 min 0,0 UV-I 13,5 C 20,3 C 3,2 km/h (1 Bft)
10.06.2013 15:35 16,5 C 21,8 C 16,9 C 20,4 C 20,4 C 3,9 C 82 % 87 % 100 % 1008,1 hPa 0,0 l/m 1,3 km/h (1 Bft) S-SW 202 5 min 0,0 UV-I 13,4 C 20,4 C 2,1 km/h (1 Bft)
10.06.2013 15:40 16,7 C 21,8 C 17,1 C 20,3 C 20,3 C 3,6 C 82 % 87 % 95 % 1008,1 hPa 0,0 l/m 2,3 km/h (1 Bft) N-NW 337 5 min 0,0 UV-I 13,6 C 20,3 C 1,8 km/h (1 Bft)
10.06.2013 15:45 16,8 C 21,8 C 17,2 C 20,5 C 20,5 C 3,7 C 82 % 87 % 97 % 1008,1 hPa 0,0 l/m 1,8 km/h (1 Bft) W-SW 247 5 min 0,0 UV-I 13,7 C 20,5 C 1,9 km/h (1 Bft)
10.06.2013 15:50 17,5 C 21,8 C 17,4 C 21,3 C 21,3 C 3,8 C 81 % 87 % 100 % 1008,1 hPa 0,0 l/m 1,8 km/h (1 Bft) S-SO 157 5 min 0,0 UV-I 14,2 C 21,3 C 0,0 km/h (0 Bft)
10.06.2013 15:55 17,9 C 21,8 C 17,5 C 22,1 C 22,1 C 4,2 C 80 % 87 % 100 % 1008,1 hPa 0,0 l/m 1,4 km/h (1 Bft) NW 315 5 min 0,0 UV-I 14,4 C 22,1 C 0,0 km/h (0 Bft)
10.06.2013 16:00 18,4 C 21,7 C 17,7 C 22,7 C 22,7 C 4,3 C 79 % 87 % 100 % 1008,1 hPa 0,0 l/m 0,5 km/h (0 Bft) SW 225 5 min 0,0 UV-I 14,7 C 22,7 C 5,3 km/h (1 Bft)
10.06.2013 16:05 18,6 C 21,7 C 17,6 C 22,7 C 22,7 C 4,1 C 77 % 86 % 100 % 1008,1 hPa 0,0 l/m 1,9 km/h (1 Bft) SW 225 5 min 0,0 UV-I 14,5 C 22,7 C 4,2 km/h (1 Bft)
10.06.2013 16:10 18,7 C 21,8 C 17,7 C 22,2 C 22,2 C 3,5 C 77 % 86 % 92 % 1008,1 hPa 0,0 l/m 2,6 km/h (1 Bft) SW 225 5 min 0,0 UV-I 14,6 C 22,2 C 0,0 km/h (0 Bft)
10.06.2013 16:15 18,8 C 21,7 C 17,7 C 22,4 C 22,4 C 3,6 C 76 % 86 % 95 % 1008,1 hPa 0,0 l/m 1,3 km/h (1 Bft) N-NO 22 5 min 0,0 UV-I 14,5 C 22,4 C 0,0 km/h (0 Bft)
10.06.2013 16:20 18,8 C 21,8 C 18,0 C 23,0 C 23,0 C 4,2 C 75 % 85 % 100 % 1008,1 hPa 0,0 l/m 1,1 km/h (1 Bft) O-NO 67 5 min 0,0 UV-I 14,3 C 23,0 C 3,1 km/h (1 Bft)
10.06.2013 16:25 18,8 C 21,8 C 18,1 C 23,7 C 23,7 C 4,9 C 74 % 84 % 100 % 1008,1 hPa 0,0 l/m 1,4 km/h (1 Bft) NW 315 5 min 0,0 UV-I 14,1 C 23,7 C 0,0 km/h (0 Bft)
10.06.2013 16:30 19,0 C 21,7 C 18,2 C 24,5 C 24,5 C 5,5 C 72 % 83 % 100 % 1008,1 hPa 0,0 l/m 1,6 km/h (1 Bft) W-NW 292 5 min 0,0 UV-I 13,8 C 24,5 C 2,7 km/h (1 Bft)
10.06.2013 16:35 19,2 C 21,7 C 18,3 C 24,2 C 24,2 C 5,0 C 72 % 83 % 100 % 1008,0 hPa 0,0 l/m 1,6 km/h (1 Bft) SW 225 5 min 0,0 UV-I 14,0 C 24,2 C 1,6 km/h (1 Bft)
10.06.2013 16:40 19,3 C 21,7 C 18,4 C 24,5 C 24,5 C 5,2 C 71 % 83 % 100 % 1008,0 hPa 0,0 l/m 2,3 km/h (1 Bft) N 360 5 min 0,1 UV-I 13,9 C 24,5 C 4,8 km/h (1 Bft)
10.06.2013 16:45 19,6 C 21,7 C 18,7 C 25,1 C 25,1 C 5,5 C 70 % 82 % 100 % 1008,0 hPa 0,0 l/m 1,8 km/h (1 Bft) N 360 5 min 0,1 UV-I 14,0 C 25,1 C 0,0 km/h (0 Bft)
10.06.2013 16:50 19,9 C 21,7 C 18,8 C 25,7 C 25,7 C 5,8 C 69 % 82 % 100 % 1008,0 hPa 0,0 l/m 2,4 km/h (1 Bft) SW 225 5 min 0,1 UV-I 14,0 C 25,7 C 3,7 km/h (1 Bft)
10.06.2013 16:55 19,8 C 21,7 C 18,9 C 25,7 C 25,7 C 5,9 C 69 % 82 % 100 % 1008,0 hPa 0,0 l/m 3,1 km/h (1 Bft) S 180 5 min 0,1 UV-I 13,9 C 25,7 C 3,2 km/h (1 Bft)
10.06.2013 17:00 19,6 C 21,7 C 18,6 C 24,7 C 24,7 C 5,1 C 69 % 81 % 100 % 1008,0 hPa 0,0 l/m 3,2 km/h (1 Bft) S 180 5 min 0,0 UV-I 13,8 C 24,7 C 14,0 km/h (3 Bft)
10.06.2013 17:05 19,5 C 21,7 C 18,5 C 24,0 C 24,0 C 4,5 C 68 % 81 % 100 % 1008,0 hPa 0,0 l/m 2,3 km/h (1 Bft) N-NO 22 5 min 0,0 UV-I 13,4 C 24,0 C 2,9 km/h (1 Bft)
10.06.2013 17:10 19,5 C 21,7 C 18,5 C 23,7 C 23,7 C 4,2 C 69 % 81 % 100 % 1008,0 hPa 0,0 l/m 1,6 km/h (1 Bft) W 270 5 min 0,0 UV-I 13,7 C 23,7 C 0,0 km/h (0 Bft)
10.06.2013 17:15 19,7 C 21,7 C 18,5 C 24,1 C 24,1 C 4,4 C 70 % 82 % 100 % 1008,3 hPa 0,0 l/m 1,4 km/h (1 Bft) S 180 5 min 0,0 UV-I 14,1 C 24,1 C 2,3 km/h (1 Bft)
10.06.2013 17:20 19,5 C 21,7 C 18,4 C 23,9 C 23,9 C 4,4 C 68 % 82 % 100 % 1008,3 hPa 0,0 l/m 2,6 km/h (1 Bft) S-SO 157 5 min 0,0 UV-I 13,4 C 23,9 C 3,2 km/h (1 Bft)
10.06.2013 17:25 19,2 C 21,7 C 18,2 C 23,0 C 23,0 C 3,8 C 69 % 82 % 100 % 1008,3 hPa 0,0 l/m 2,4 km/h (1 Bft) W 270 5 min 0,0 UV-I 13,4 C 23,0 C 0,0 km/h (0 Bft)
10.06.2013 17:30 19,2 C 21,7 C 18,3 C 22,6 C 22,6 C 3,4 C 70 % 82 % 89 % 1008,3 hPa 0,0 l/m 1,3 km/h (1 Bft) SW 225 5 min 0,0 UV-I 13,6 C 22,6 C 2,3 km/h (1 Bft)
10.06.2013 17:35 19,1 C 21,7 C 18,1 C 22,3 C 22,3 C 3,2 C 70 % 81 % 84 % 1008,3 hPa 0,0 l/m 1,3 km/h (1 Bft) W 270 0 min 0,0 UV-I 13,5 C 22,3 C 3,2 km/h (1 Bft)
10.06.2013 17:40 19,1 C 21,7 C 18,0 C 21,9 C 21,9 C 2,8 C 70 % 82 % 74 % 1008,3 hPa 0,0 l/m 2,1 km/h (1 Bft) W-SW 247 0 min 0,0 UV-I 13,5 C 21,9 C 3,5 km/h (1 Bft)
10.06.2013 17:45 19,1 C 21,7 C 18,0 C 21,8 C 21,8 C 2,7 C 71 % 82 % 71 % 1008,3 hPa 0,0 l/m 1,4 km/h (1 Bft) SW 225 0 min 0,0 UV-I 13,7 C 21,8 C 1,9 km/h (1 Bft)
10.06.2013 17:50 19,1 C 21,7 C 17,9 C 21,7 C 21,7 C 2,6 C 71 % 82 % 68 % 1008,3 hPa 0,0 l/m 1,3 km/h (1 Bft) N-NW 337 0 min 0,0 UV-I 13,7 C 21,7 C 0,0 km/h (0 Bft)
10.06.2013 17:55 19,1 C 21,7 C 18,1 C 21,6 C 21,6 C 2,5 C 71 % 82 % 66 % 1008,4 hPa 0,0 l/m 1,6 km/h (1 Bft) W-SW 247 0 min 0,0 UV-I 13,7 C 21,6 C 2,6 km/h (1 Bft)
10.06.2013 18:00 19,1 C 21,8 C 18,0 C 21,9 C 21,9 C 2,8 C 72 % 82 % 74 % 1008,4 hPa 0,0 l/m 1,6 km/h (1 Bft) S-SW 202 0 min 0,0 UV-I 13,9 C 21,9 C 3,7 km/h (1 Bft)
10.06.2013 18:05 19,2 C 21,7 C 18,1 C 22,0 C 22,0 C 2,8 C 72 % 82 % 74 % 1008,4 hPa 0,0 l/m 1,8 km/h (1 Bft) SW 225 0 min 0,0 UV-I 14,0 C 22,0 C 2,3 km/h (1 Bft)
10.06.2013 18:10 19,2 C 21,8 C 18,1 C 22,0 C 22,0 C 2,8 C 72 % 82 % 74 % 1008,4 hPa 0,0 l/m 2,4 km/h (1 Bft) W 270 0 min 0,0 UV-I 14,0 C 22,0 C 5,3 km/h (1 Bft)
10.06.2013 18:15 19,2 C 21,8 C 18,0 C 21,7 C 21,7 C 2,5 C 72 % 82 % 66 % 1008,4 hPa 0,0 l/m 3,1 km/h (1 Bft) SW 225 0 min 0,0 UV-I 14,0 C 21,7 C 3,4 km/h (1 Bft)
10.06.2013 18:20 19,1 C 21,8 C 17,9 C 20,9 C 20,9 C 1,8 C 73 % 82 % 47 % 1008,4 hPa 0,0 l/m 3,4 km/h (1 Bft) S-SW 202 0 min 0,0 UV-I 14,1 C 20,9 C 3,2 km/h (1 Bft)
10.06.2013 18:25 19,0 C 21,8 C 17,9 C 20,7 C 20,7 C 1,7 C 74 % 82 % 45 % 1008,4 hPa 0,0 l/m 3,4 km/h (1 Bft) W 270 0 min 0,0 UV-I 14,3 C 20,7 C 6,0 km/h (2 Bft)
10.06.2013 18:30 19,0 C 21,8 C 17,9 C 20,7 C 20,7 C 1,7 C 74 % 82 % 45 % 1008,4 hPa 0,0 l/m 3,2 km/h (1 Bft) SW 225 0 min 0,0 UV-I 14,3 C 20,7 C 4,3 km/h (1 Bft)
10.06.2013 18:35 18,8 C 21,8 C 17,9 C 20,8 C 20,8 C 2,0 C 74 % 82 % 53 % 1008,6 hPa 0,0 l/m 3,2 km/h (1 Bft) S 180 0 min 0,0 UV-I 14,1 C 20,8 C 2,3 km/h (1 Bft)
10.06.2013 18:41 18,8 C 21,8 C 17,8 C 20,7 C 20,7 C 1,9 C 75 % 82 % 50 % 1008,6 hPa 0,0 l/m 2,3 km/h (1 Bft) N 0 0 min 0,0 UV-I 14,3 C 20,7 C 1,6 km/h (1 Bft)
10.06.2013 19:00 18,5 C 21,8 C 17,5 C 19,3 C 19,3 C 0,8 C 77 % 83 % 21 % 1008,8 hPa 0,0 l/m 1,1 km/h (1 Bft) W 270 0 min 0,0 UV-I 14,4 C 19,3 C 1,9 km/h (1 Bft)
10.06.2013 19:05 18,7 C 21,8 C 17,5 C 19,3 C 19,3 C 0,6 C 77 % 83 % 16 % 1008,8 hPa 0,0 l/m 0,8 km/h (0 Bft) W-SW 247 0 min 0,0 UV-I 14,6 C 19,3 C 0,0 km/h (0 Bft)
10.06.2013 19:10 18,6 C 21,9 C 17,5 C 19,5 C 19,5 C 0,9 C 77 % 83 % 24 % 1008,8 hPa 0,0 l/m 1,1 km/h (1 Bft) S 180 0 min 0,0 UV-I 14,5 C 19,5 C 2,7 km/h (1 Bft)
10.06.2013 19:15 18,5 C 21,9 C 17,3 C 19,4 C 19,4 C 0,9 C 77 % 83 % 24 % 1008,8 hPa 0,0 l/m 2,3 km/h (1 Bft) S-SW 202 0 min 0,0 UV-I 14,4 C 19,4 C 2,9 km/h (1 Bft)
10.06.2013 19:20 18,3 C 21,9 C 17,3 C 19,0 C 19,0 C 0,7 C 78 % 83 % 18 % 1008,8 hPa 0,0 l/m 3,1 km/h (1 Bft) NW 315 0 min 0,0 UV-I 14,4 C 19,0 C 3,1 km/h (1 Bft)
10.06.2013 19:25 18,1 C 21,9 C 17,2 C 18,9 C 18,9 C 0,8 C 78 % 82 % 21 % 1008,8 hPa 0,0 l/m 2,6 km/h (1 Bft) SW 225 0 min 0,0 UV-I 14,2 C 18,9 C 2,3 km/h (1 Bft)
10.06.2013 19:30 18,0 C 21,9 C 17,3 C 18,7 C 18,7 C 0,7 C 79 % 83 % 18 % 1008,8 hPa 0,0 l/m 2,1 km/h (1 Bft) SW 225 0 min 0,0 UV-I 14,3 C 18,7 C 3,4 km/h (1 Bft)
10.06.2013 19:35 18,0 C 21,9 C 17,1 C 18,5 C 18,5 C 0,5 C 79 % 82 % 13 % 1008,8 hPa 0,0 l/m 1,8 km/h (1 Bft) W-SW 247 0 min 0,0 UV-I 14,3 C 18,5 C 0,0 km/h (0 Bft)
10.06.2013 19:41 18,0 C 21,9 C 17,0 C 18,3 C 18,3 C 0,3 C 79 % 82 % 8 % 1008,8 hPa 0,0 l/m 2,1 km/h (1 Bft) W 270 0 min 0,0 UV-I 14,3 C 18,3 C 3,9 km/h (1 Bft)
10.06.2013 19:45 18,0 C 22,0 C 17,1 C 18,4 C 18,4 C 0,4 C 79 % 83 % 11 % 1008,8 hPa 0,0 l/m 2,3 km/h (1 Bft) O-NO 67 0 min 0,0 UV-I 14,3 C 18,4 C 2,3 km/h (1 Bft)
10.06.2013 19:50 18,1 C 21,9 C 17,1 C 18,5 C 18,5 C 0,4 C 80 % 83 % 11 % 1008,8 hPa 0,0 l/m 1,8 km/h (1 Bft) S 180 0 min 0,0 UV-I 14,6 C 18,5 C 2,1 km/h (1 Bft)
10.06.2013 19:55 18,0 C 22,0 C 17,0 C 18,6 C 18,6 C 0,6 C 80 % 83 % 16 % 1008,7 hPa 0,0 l/m 1,4 km/h (1 Bft) SW 225 0 min 0,0 UV-I 14,5 C 18,6 C 1,8 km/h (1 Bft)
10.06.2013 20:00 18,1 C 21,9 C 17,1 C 18,5 C 18,5 C 0,4 C 80 % 83 % 11 % 1008,7 hPa 0,0 l/m 1,1 km/h (1 Bft) N 360 0 min 0,0 UV-I 14,6 C 18,5 C 3,2 km/h (1 Bft)
10.06.2013 20:05 18,0 C 22,0 C 17,0 C 18,5 C 18,5 C 0,5 C 80 % 83 % 13 % 1008,7 hPa 0,0 l/m 0,8 km/h (0 Bft) SW 225 0 min 0,0 UV-I 14,5 C 18,5 C 0,0 km/h (0 Bft)
10.06.2013 20:10 17,9 C 22,1 C 16,8 C 18,0 C 18,0 C 0,1 C 80 % 83 % 3 % 1008,7 hPa 0,0 l/m 0,3 km/h (0 Bft) W-SW 247 0 min 0,0 UV-I 14,4 C 18,0 C 0,0 km/h (0 Bft)
10.06.2013 20:15 17,9 C 22,2 C 16,7 C 17,9 C 17,8 C 0,0 C 80 % 83 % 0 % 1008,9 hPa 0,0 l/m 0,2 km/h (0 Bft) W-SW 247 0 min 0,0 UV-I 14,4 C 17,8 C 0,0 km/h (0 Bft)
10.06.2013 20:20 17,7 C 22,2 C 16,7 C 17,6 C 17,3 C 0,0 C 80 % 83 % 0 % 1008,9 hPa 0,0 l/m 0,2 km/h (0 Bft) S 180 0 min 0,0 UV-I 14,2 C 17,3 C 0,0 km/h (0 Bft)
10.06.2013 20:25 17,6 C 22,3 C 16,5 C 17,4 C 17,0 C 0,0 C 81 % 83 % 0 % 1008,9 hPa 0,0 l/m 0,0 km/h (0 Bft) S-SO 157 0 min 0,0 UV-I 14,3 C 17,0 C 0,0 km/h (0 Bft)
10.06.2013 20:28 17,3 C 22,2 C 16,5 C 17,1 C 16,6 C 0,0 C 81 % 83 % 0 % 1008,9 hPa 0,0 l/m 0,0 km/h (0 Bft) SW 225 0 min 0,0 UV-I 14,0 C 16,6 C 0,0 km/h (0 Bft)
10.06.2013 20:33 17,2 C 22,3 C 16,3 C 16,9 C 16,4 C 0,0 C 81 % 83 % 0 % 1008,6 hPa 0,0 l/m 0,0 km/h (0 Bft) SW 225 0 min 0,0 UV-I 13,9 C 16,4 C 0,0 km/h (0 Bft)
10.06.2013 20:35 17,2 C 22,3 C 16,3 C 16,9 C 16,4 C 0,0 C 81 % 83 % 0 % 1008,6 hPa 0,0 l/m 0,0 km/h (0 Bft) SW 225 0 min 0,0 UV-I 13,9 C 16,4 C 0,0 km/h (0 Bft)
10.06.2013 20:40 16,9 C 22,3 C 16,1 C 16,6 C 16,1 C 0,0 C 82 % 83 % 0 % 1008,6 hPa 0,0 l/m 0,0 km/h (0 Bft) SW 225 0 min 0,0 UV-I 13,8 C 16,1 C 0,0 km/h (0 Bft)
10.06.2013 20:45 16,9 C 22,3 C 16,1 C 16,6 C 15,9 C 0,0 C 82 % 83 % 0 % 1008,6 hPa 0,0 l/m 0,0 km/h (0 Bft) W-SW 247 0 min 0,0 UV-I 13,8 C 15,9 C 0,0 km/h (0 Bft)
10.06.2013 20:50 16,7 C 22,4 C 15,9 C 16,3 C 15,5 C 0,0 C 82 % 83 % 0 % 1008,6 hPa 0,0 l/m 0,0 km/h (0 Bft) SW 225 0 min 0,0 UV-I 13,6 C 15,5 C 0,0 km/h (0 Bft)
10.06.2013 20:55 16,5 C 22,4 C 15,8 C 16,1 C 15,4 C 0,0 C 83 % 83 % 0 % 1008,9 hPa 0,0 l/m 0,0 km/h (0 Bft) O 90 0 min 0,0 UV-I 13,6 C 15,4 C 0,0 km/h (0 Bft)
10.06.2013 21:00 16,3 C 22,4 C 15,7 C 15,9 C 15,0 C 0,0 C 83 % 84 % 0 % 1008,9 hPa 0,0 l/m 0,0 km/h (0 Bft) O 90 0 min 0,0 UV-I 13,4 C 15,0 C 0,0 km/h (0 Bft)
10.06.2013 21:05 16,0 C 22,4 C 15,6 C 15,6 C 14,8 C 0,0 C 84 % 84 % 0 % 1008,9 hPa 0,0 l/m 0,0 km/h (0 Bft) O 90 0 min 0,0 UV-I 13,3 C 14,8 C 0,0 km/h (0 Bft)
10.06.2013 21:10 15,7 C 22,4 C 15,5 C 15,3 C 14,4 C 0,0 C 84 % 84 % 0 % 1008,9 hPa 0,0 l/m 0,0 km/h (0 Bft) SW 225 0 min 0,0 UV-I 13,0 C 14,4 C 0,0 km/h (0 Bft)
10.06.2013 21:15 15,5 C 22,4 C 15,3 C 15,1 C 14,2 C 0,0 C 84 % 84 % 0 % 1009,2 hPa 0,0 l/m 0,0 km/h (0 Bft) SW 225 0 min 0,0 UV-I 12,8 C 14,2 C 0,0 km/h (0 Bft)
10.06.2013 21:20 15,3 C 22,4 C 15,2 C 14,8 C 13,9 C 0,0 C 84 % 84 % 0 % 1009,2 hPa 0,0 l/m 0,0 km/h (0 Bft) O 90 0 min 0,0 UV-I 12,6 C 13,9 C 0,0 km/h (0 Bft)
10.06.2013 21:25 14,9 C 22,4 C 15,0 C 14,6 C 13,9 C 0,0 C 84 % 84 % 0 % 1009,2 hPa 0,0 l/m 0,0 km/h (0 Bft) O 90 0 min 0,0 UV-I 12,2 C 13,9 C 0,0 km/h (0 Bft)
10.06.2013 21:30 14,6 C 22,4 C 14,8 C 14,3 C 13,6 C 0,0 C 85 % 84 % 0 % 1009,2 hPa 0,0 l/m 0,0 km/h (0 Bft) O 90 0 min 0,0 UV-I 12,1 C 13,6 C 0,0 km/h (0 Bft)
10.06.2013 21:35 14,5 C 22,4 C 14,7 C 14,1 C 13,4 C 0,0 C 85 % 84 % 0 % 1009,2 hPa 0,0 l/m 0,0 km/h (0 Bft) O 90 0 min 0,0 UV-I 12,0 C 13,4 C 0,0 km/h (0 Bft)
10.06.2013 21:40 14,2 C 22,4 C 14,5 C 13,8 C 13,1 C 0,0 C 85 % 84 % 0 % 1009,2 hPa 0,0 l/m 0,0 km/h (0 Bft) SW 225 0 min 0,0 UV-I 11,7 C 13,1 C 0,0 km/h (0 Bft)
10.06.2013 21:45 14,1 C 22,4 C 14,4 C 13,7 C 13,0 C 0,0 C 85 % 84 % 0 % 1009,2 hPa 0,0 l/m 0,0 km/h (0 Bft) SW 225 0 min 0,0 UV-I 11,6 C 13,0 C 0,0 km/h (0 Bft)
10.06.2013 21:50 13,9 C 22,4 C 14,2 C 13,6 C 12,9 C 0,0 C 85 % 85 % 0 % 1009,2 hPa 0,0 l/m 0,0 km/h (0 Bft) SW 225 0 min 0,0 UV-I 11,4 C 12,9 C 0,0 km/h (0 Bft)
10.06.2013 21:55 13,7 C 22,5 C 14,2 C 13,4 C 12,8 C 0,0 C 85 % 85 % 0 % 1009,6 hPa 0,0 l/m 0,0 km/h (0 Bft) SW 225 0 min 0,0 UV-I 11,2 C 12,8 C 0,0 km/h (0 Bft)
10.06.2013 22:00 13,5 C 22,5 C 14,0 C 13,2 C 12,6 C 0,0 C 86 % 84 % 0 % 1009,6 hPa 0,0 l/m 0,0 km/h (0 Bft) SW 225 0 min 0,0 UV-I 11,2 C 12,6 C 0,0 km/h (0 Bft)
10.06.2013 22:05 13,3 C 22,5 C 13,9 C 13,1 C 12,6 C 0,0 C 86 % 85 % 0 % 1009,6 hPa 0,0 l/m 0,0 km/h (0 Bft) SW 225 0 min 0,0 UV-I 11,0 C 12,6 C 0,0 km/h (0 Bft)
10.06.2013 22:10 13,1 C 22,5 C 13,9 C 12,9 C 12,6 C 0,0 C 86 % 85 % 0 % 1009,6 hPa 0,0 l/m 0,0 km/h (0 Bft) O-NO 67 0 min 0,0 UV-I 10,8 C 12,6 C 0,0 km/h (0 Bft)
10.06.2013 22:15 13,0 C 22,5 C 13,7 C 12,8 C 12,5 C 0,0 C 87 % 85 % 0 % 1009,6 hPa 0,0 l/m 0,0 km/h (0 Bft) O-NO 67 0 min 0,0 UV-I 10,9 C 12,5 C 0,0 km/h (0 Bft)
10.06.2013 22:20 12,9 C 22,4 C 13,6 C 12,7 C 12,3 C 0,0 C 87 % 85 % 0 % 1009,6 hPa 0,0 l/m 0,0 km/h (0 Bft) O-NO 67 0 min 0,0 UV-I 10,8 C 12,3 C 0,0 km/h (0 Bft)
10.06.2013 22:25 12,7 C 22,4 C 13,6 C 12,5 C 12,2 C 0,0 C 87 % 85 % 0 % 1009,6 hPa 0,0 l/m 0,0 km/h (0 Bft) O-NO 67 0 min 0,0 UV-I 10,6 C 12,2 C 0,0 km/h (0 Bft)
10.06.2013 22:30 12,5 C 22,4 C 13,4 C 12,3 C 11,8 C 0,0 C 87 % 85 % 0 % 1009,6 hPa 0,0 l/m 0,0 km/h (0 Bft) SW 225 0 min 0,0 UV-I 10,4 C 11,8 C 0,0 km/h (0 Bft)
10.06.2013 22:35 12,3 C 22,4 C 13,2 C 12,1 C 11,7 C 0,0 C 86 % 85 % 0 % 1010,2 hPa 0,0 l/m 0,0 km/h (0 Bft) W-SW 247 0 min 0,0 UV-I 10,0 C 11,7 C 0,0 km/h (0 Bft)
10.06.2013 22:40 12,1 C 22,4 C 13,1 C 11,9 C 11,5 C 0,0 C 86 % 85 % 0 % 1010,2 hPa 0,0 l/m 0,0 km/h (0 Bft) SW 225 0 min 0,0 UV-I 9,8 C 11,5 C 0,0 km/h (0 Bft)
10.06.2013 22:45 12,0 C 22,4 C 13,0 C 11,8 C 11,5 C 0,0 C 87 % 85 % 0 % 1010,2 hPa 0,0 l/m 0,0 km/h (0 Bft) W-SW 247 0 min 0,0 UV-I 9,9 C 11,5 C 0,0 km/h (0 Bft)
10.06.2013 22:50 11,8 C 22,4 C 12,9 C 11,7 C 11,4 C 0,0 C 87 % 85 % 0 % 1010,2 hPa 0,0 l/m 0,0 km/h (0 Bft) S-SW 202 0 min 0,0 UV-I 9,7 C 11,4 C 0,0 km/h (0 Bft)
10.06.2013 22:55 11,7 C 22,4 C 12,8 C 11,6 C 11,3 C 0,0 C 87 % 85 % 0 % 1010,1 hPa 0,0 l/m 0,0 km/h (0 Bft) SW 225 0 min 0,0 UV-I 9,6 C 11,3 C 0,0 km/h (0 Bft)
10.06.2013 23:00 11,5 C 22,4 C 12,8 C 11,4 C 11,2 C 0,0 C 87 % 85 % 0 % 1010,1 hPa 0,0 l/m 0,0 km/h (0 Bft) W-SW 247 0 min 0,0 UV-I 9,4 C 11,2 C 0,0 km/h (0 Bft)
10.06.2013 23:05 11,5 C 22,4 C 12,7 C 11,4 C 11,1 C 0,0 C 87 % 85 % 0 % 1010,1 hPa 0,0 l/m 0,0 km/h (0 Bft) SW 225 0 min 0,0 UV-I 9,4 C 11,1 C 0,0 km/h (0 Bft)
10.06.2013 23:10 11,2 C 22,4 C 12,5 C 11,1 C 11,0 C 0,0 C 87 % 85 % 0 % 1010,1 hPa 0,0 l/m 0,0 km/h (0 Bft) S-SW 202 0 min 0,0 UV-I 9,1 C 11,0 C 0,0 km/h (0 Bft)
10.06.2013 23:15 11,1 C 22,4 C 12,5 C 11,0 C 10,9 C 0,0 C 87 % 85 % 0 % 1010,1 hPa 0,0 l/m 0,0 km/h (0 Bft) W-SW 247 0 min 0,0 UV-I 9,0 C 10,9 C 0,0 km/h (0 Bft)
10.06.2013 23:20 11,0 C 22,3 C 12,3 C 10,9 C 10,8 C 0,0 C 87 % 85 % 0 % 1010,1 hPa 0,0 l/m 0,0 km/h (0 Bft) SW 225 0 min 0,0 UV-I 8,9 C 10,8 C 0,0 km/h (0 Bft)
10.06.2013 23:25 10,9 C 22,4 C 12,3 C 10,8 C 10,6 C 0,0 C 87 % 86 % 0 % 1010,1 hPa 0,0 l/m 0,0 km/h (0 Bft) O-SO 112 0 min 0,0 UV-I 8,8 C 10,6 C 0,0 km/h (0 Bft)
10.06.2013 23:30 10,7 C 22,3 C 12,1 C 10,7 C 10,6 C 0,0 C 87 % 86 % 0 % 1010,1 hPa 0,0 l/m 0,0 km/h (0 Bft) SO 135 0 min 0,0 UV-I 8,6 C 10,6 C 0,0 km/h (0 Bft)
10.06.2013 23:35 10,7 C 22,3 C 12,1 C 10,7 C 10,6 C 0,0 C 88 % 86 % 0 % 1010,4 hPa 0,0 l/m 0,0 km/h (0 Bft) O-SO 112 0 min 0,0 UV-I 8,8 C 10,6 C 0,0 km/h (0 Bft)
10.06.2013 23:40 10,7 C 22,3 C 12,1 C 10,7 C 10,6 C 0,0 C 88 % 86 % 0 % 1010,4 hPa 0,0 l/m 0,0 km/h (0 Bft) O 90 0 min 0,0 UV-I 8,8 C 10,6 C 0,0 km/h (0 Bft)
10.06.2013 23:45 10,6 C 22,3 C 12,1 C 10,8 C 10,8 C 0,2 C 89 % 86 % 0 % 1010,4 hPa 0,0 l/m 0,0 km/h (0 Bft) SO 135 0 min 0,0 UV-I 8,9 C 10,8 C 0,0 km/h (0 Bft)
10.06.2013 23:50 10,6 C 22,3 C 12,1 C 10,8 C 10,8 C 0,2 C 89 % 86 % 0 % 1010,4 hPa 0,0 l/m 0,0 km/h (0 Bft) SW 225 0 min 0,0 UV-I 8,9 C 10,8 C 0,0 km/h (0 Bft)
10.06.2013 23:55 10,6 C 22,3 C 12,1 C 10,8 C 10,8 C 0,2 C 89 % 86 % 0 % 1010,7 hPa 0,0 l/m 0,0 km/h (0 Bft) S 180 0 min 0,0 UV-I 8,9 C 10,8 C 0,0 km/h (0 Bft)
_ Min-Zeit 23:45 15:25 23:30 23:30 23:25 20:15 17:05 17:00 00:00 07:15 - 00:00 - - - 00:00 23:30 23:25 00:00
Minimum _ 10,6 C 21,7 C 12,1 C 10,7 C 10,6 C 0,0 C 68 % 81 % 0 % 1004,8 hPa - 0,0 km/h (0 Bft) - - - 0,0 UV-I 8,6 C 10,6 C 0,0 km/h (0 Bft)
_ Max-Zeit 16:50 10:50 16:55 16:50 16:50 16:55 05:00 02:35 15:20 23:55 07:30 12:10 - - 05:10 07:30 16:00 16:50 17:00
Maximum _ 19,9 C 22,8 C 18,9 C 25,7 C 25,7 C 5,9 C 93 % 90 % 100 % 1010,7 hPa 0,7 l/m 3,4 km/h
W (1 Bft)
- - 5 min 0,2 UV-I 14,7 C 25,7 C 14,0 km/h
S (3 Bft)
Durchschnitt _ 14,5 C 22,3 C 15,0 C 15,9 C 15,9 C 1,5 C 87 % 87 % 33 % 1007,1 hPa #2,1 l/m 0,8 km/h (0 Bft) SW - #3:00 h 0,1 UV-I 12,3 C 15,9 C 1,2 km/h (1 Bft)
2013 www.wetterstation-wechselburg.de